Regional Weather Roundup
Issued by NWS

Home | Current Version | Previous Version | Graphics & Text | Print | Product List | Glossary On
Versions: 1 2 3 4 5 6 7 8 9 10 11 12 13 14 15 16 17 18 19 20 21 22 23 24 25 26 27 28 29 30 31 32 33 34 35 36 37 38 39 40 41 42 43 44 45 46 47 48 49 50
731
ASUS45 KCYS 100710
RWRWY

WYOMING REGIONAL WEATHER ROUNDUP
NATIONAL WEATHER SERVICE CHEYENNE WY
1200 AM MST SAT DEC 10 2016

NOTE:  "FAIR" INDICATES FEW OR NO CLOUDS BELOW 12,000 FEET
WITH NO SIGNIFICANT WEATHER AND/OR OBSTRUCTIONS TO VISIBILITY.

WYZ001-100800-
YELLOWSTONE NATIONAL PARK

CITY           SKY/WX    TMP DP  RH WIND       PRES   REMARKS
LK YELLOWSTONE   N/A     26  23  88 VRB3      29.89F
W YELLOWSTONE  NOT AVBL

$$
WYZ002>013-054>058-071-098>099-100800-
NORTHERN WYOMING

CITY           SKY/WX    TMP DP  RH WIND       PRES   REMARKS
JACKSON        CLOUDY    28  28 100 SW6       29.94F WCI  22
CODY           MOCLDY     7   3  84 CALM      29.92F
GREYBULL       FAIR       9   3  77 SE5       30.00F WCI   1
WORLAND        FAIR       5   2  87 S5        29.99F WCI  -4
SHERIDAN       MOCLDY     9   5  84 NW3       29.99F
BUFFALO        CLOUDY    11   2  67 S9        29.95F WCI  -2
GILLETTE       FAIR       8   4  83 S15       30.01F WCI  -9
HULETT         CLOUDY     5   0  78 CALM      30.06F
NEWCASTLE      LGT SNOW   3   0  85 CALM      30.09F

$$
WYZ014>020-022>026-101>103-100800-
CENTRAL WYOMING

CITY           SKY/WX    TMP DP  RH WIND       PRES   REMARKS
BIG PINEY      LGT SNOW  18  16  92 N3        30.01F FOG
PINEDALE       FLURRIES  25  25 100 CALM      30.01F
DUBOIS         CLOUDY    30  23  74 N14G20    29.88F WCI  20
LANDER         FAIR       9   5  84 CALM      29.90F
RIVERTON       FAIR      11   5  77 NW5       29.92F WCI   3
CASPER         FAIR       2  -3  80 N7        29.91F WCI -11
DOUGLAS        FAIR      13   9  84 SE3       29.97F

$$
WYZ021-027>030-104>119-100800-
SOUTHERN WYOMING

CITY           SKY/WX    TMP DP  RH WIND       PRES   REMARKS
EVANSTON       FAIR      31  21  66 SW10      30.05R WCI  22
KEMMERER         N/A     28  25  86 SW6       30.02F WCI  22
FORT BRIDGER   FAIR      34  22  61 W15G22    30.04S WCI  25
ROCK SPRINGS   FAIR      34  24  67 SW14      30.03F WCI  25
DIXON          CLOUDY    36  24  60 SW12      30.12F WCI  28
RAWLINS        CLOUDY    36  21  54 W20G28    30.00F WCI  25
SARATOGA       CLOUDY    34  25  69 S5        30.06F WCI  30
LARAMIE          N/A    N/A N/A N/A MISG        N/A
CHEYENNE       MOCLDY    26  19  74 W7        30.03F WCI  18
TORRINGTON     CLOUDY    13   6  74 E13       30.03F WCI  -2
PINE BLUFFS    CLOUDY    23  18  80 SW8       30.06F WCI  14

$$




USA.gov is the U.S. government's official web portal to all federal, state and local government web resources and services.